Vorticity
11 5 1 3 8 10 5 1 0 1 5 7 0 -0 2 6 7 5 2 5 -1 0 2 6 5 5 5 5 5 4 4 6 7
5 9 10 10 8 4 5 -2 -1 1 2 11 9 2 4 5 1 2 3 2 3 2 2 4 6 6 6 5 5 5 5 6 7
4 7 6 7 9 5 8 16 13 3 5 5 7 8 7 4 4 3 2 1 3 3 2 3 3 7 6 5 5 4 4 6 7
6 6 6 7 8 7 4 10 11 6 7 10 7 5 5 6 5 4 5 8 5 5 5 3 3 7 7 6 5 4 5 6 7
3 0 4 5 7 7 4 -0 0 -0 0 4 8 9 6 6 7 7 8 5 5 4 4 5 4 9 8 6 5 5 5 6 7
7 5 5 5 5 4 5 5 1 3 2 -0 1 5 11 8 7 7 6 6 7 6 7 7 7 9 6 6 6 5 4 6 7
3 6 6 6 5 3 4 6 7 -1 -1 2 2 3 4 9 10 7 6 6 7 7 8 8 8 7 6 6 5 5 4 7 8
5 4 8 5 4 5 4 2 5 6 1 -2 3 7 4 5 10 11 8 8 6 7 9 10 12 8 6 6 5 5 5 7 8
5 4 3 7 6 5 3 4 5 3 16 8 -2 20 6 2 5 7 6 8 17 4 23 25 4 11 9 7 6 6 6 6 9
5 5 3 1 6 7 8 6 4 7 11 8 8 1 -3 10 1 10 17 11 12 3 1 5 2 -2 15 9 8 6 6 5 7
6 4 5 4 3 5 7 14 8 4 2 8 5 14 19 -17 -14 -9 -7 11 14 4 6 2 1 5 6 16 10 9 8 6 7
7 5 2 5 2 2 2 10 10 12 7 6 10 5 -2 19 14 6 6 1 11 10 5 1 6 -0 5 8 20 14 10 9 7
9 10 10 6 6 9 0 1 5 23 7 31 10 1 -2 -4 -10 5 1 7 7 13 8 1 8 1 3 3 5 1 14 10 11
7 11 4 13 3 2 1 -5 11 -1 19 -0 5 14 0 2 4 11 8 6 9 10 10 7 0 2 7 6 3 7 -1 17 11
7 14 11 12 -0 9 10 -4 15 27 30 -3 22 -5 -1 12 12 2 2 4 3 10 14 14 4 2 -6 -5 6 3 3 6 8
5 3 20 17 20 8 13 16 30 -2 28 34 -5 39 5 -4 2 -14 -8 3 13 11 7 11 14 5 2 -0 -4 -5 1 3 -1
8 8 5 4 7 11 16 10 13 26 -19 3 1 -9 9 9 4 11 4 5 7 2 8 9 8 28 8 0 3 -3 -4 -3 -3
8 9 12 11 11 8 7 11 16 7 12 3 -27 26 16 -6 11 7 14 -2 -1 2 9 7 4 2 18 26 19 10 -3 -4 8
18 13 6 7 10 8 10 14 8 11 12 11 -14 5 -29 24 34 3 -8 18 2 9 7 2 13 8 -3 13 8 18 17 23 -3
13 15 13 27 18 6 12 17 13 14 4 11 14 -3 11 38 -8 52 40 -8 5 4 -2 9 9 12 16 7 3 14 13 11 15
Height
3152 3154 3154 3155 3155 3156 3157 3158 3158 3159 3160 3160 3161 3162 3163 3164 3165 3167 3168 3169 3170 3172 3172 3173 3173 3175 3175 3176 3177 3178 3179 3180 3181
3149 3151 3152 3153 3153 3155 3157 3157 3157 3157 3158 3159 3160 3161 3162 3164 3165 3166 3168 3169 3170 3171 3172 3172 3173 3173 3174 3174 3176 3177 3178 3179 3181
3148 3148 3148 3150 3152 3153 3154 3155 3155 3155 3156 3157 3158 3159 3161 3163 3164 3165 3166 3168 3169 3170 3170 3171 3172 3172 3172 3174 3174 3176 3177 3178 3180
3144 3146 3146 3146 3148 3151 3151 3153 3154 3154 3155 3156 3156 3157 3158 3160 3162 3164 3164 3165 3167 3167 3168 3169 3170 3171 3172 3173 3174 3174 3176 3178 3179
3142 3143 3143 3144 3145 3148 3150 3152 3152 3152 3152 3153 3154 3155 3156 3157 3159 3160 3162 3163 3164 3165 3166 3167 3167 3168 3170 3171 3172 3173 3175 3176 3177
3137 3139 3140 3141 3143 3145 3146 3148 3150 3151 3150 3150 3151 3151 3152 3155 3157 3157 3158 3159 3161 3162 3163 3164 3165 3165 3167 3169 3169 3170 3173 3174 3175
3133 3134 3136 3138 3140 3142 3142 3142 3143 3146 3148 3148 3148 3148 3148 3149 3152 3154 3154 3155 3156 3158 3159 3160 3162 3163 3164 3166 3167 3168 3170 3173 3174
3128 3130 3132 3133 3136 3137 3138 3138 3139 3140 3142 3144 3145 3146 3145 3146 3148 3149 3151 3152 3152 3153 3154 3155 3157 3158 3161 3162 3164 3165 3168 3170 3172
3123 3125 3126 3127 3129 3132 3133 3134 3136 3136 3137 3139 3140 3144 3144 3144 3146 3146 3147 3148 3148 3150 3150 3152 3153 3155 3157 3158 3160 3162 3164 3167 3169
3118 3119 3120 3121 3123 3125 3126 3128 3130 3131 3133 3133 3134 3138 3141 3142 3143 3143 3144 3145 3145 3148 3149 3149 3150 3151 3153 3154 3155 3157 3160 3162 3164
3109 3112 3114 3115 3117 3118 3120 3121 3122 3125 3126 3128 3129 3131 3132 3135 3137 3139 3141 3141 3141 3144 3145 3146 3147 3148 3150 3150 3151 3153 3155 3157 3159
3104 3106 3107 3108 3110 3111 3113 3114 3115 3115 3118 3120 3121 3123 3125 3128 3132 3132 3134 3136 3138 3138 3140 3142 3143 3144 3146 3147 3147 3148 3150 3153 3154
3096 3099 3101 3102 3104 3105 3105 3107 3107 3108 3108 3113 3114 3116 3118 3122 3124 3125 3127 3129 3131 3132 3134 3137 3139 3140 3141 3143 3144 3144 3145 3147 3149
3089 3091 3093 3094 3095 3096 3098 3099 3100 3100 3101 3106 3108 3109 3110 3113 3116 3118 3119 3123 3124 3126 3127 3130 3132 3134 3136 3138 3139 3139 3141 3142 3143
3082 3083 3084 3086 3087 3088 3090 3090 3092 3091 3092 3095 3096 3098 3100 3103 3105 3109 3112 3114 3116 3119 3120 3122 3124 3126 3129 3132 3134 3134 3135 3137 3138
3076 3077 3077 3078 3078 3080 3081 3083 3084 3081 3083 3083 3086 3088 3091 3093 3097 3099 3102 3105 3108 3111 3112 3113 3115 3118 3122 3125 3127 3129 3129 3131 3132
3069 3070 3070 3071 3072 3072 3073 3074 3076 3077 3078 3081 3082 3079 3081 3083 3086 3089 3092 3095 3098 3102 3105 3106 3107 3109 3111 3116 3118 3121 3123 3124 3127
3062 3062 3062 3063 3063 3064 3065 3066 3067 3068 3072 3074 3071 3072 3070 3074 3074 3078 3081 3085 3088 3091 3094 3096 3099 3102 3103 3106 3109 3111 3115 3116 3117
3054 3055 3055 3054 3055 3056 3056 3057 3058 3059 3061 3064 3065 3065 3064 3060 3063 3065 3070 3073 3077 3081 3085 3087 3090 3092 3095 3097 3099 3101 3103 3108 3110
3048 3047 3046 3047 3046 3046 3047 3048 3049 3050 3051 3052 3054 3055 3057 3057 3054 3052 3058 3060 3063 3069 3074 3078 3080 3083 3085 3087 3090 3092 3093 3095 3100